Printer-friendly version

IAU Minor Planet Center

Minor Planet Center

MPEC 2007-T32 : 2007 TB14

The following Minor Planet Electronic Circular may be linked-to from your own Web pages, but must not otherwise be redistributed electronically.


Read MPEC 2007-T31 Read MPEC 2007-T33


M.P.E.C. 2007-T32                                Issued 2007 Oct.  9, 03:21 UT

     The Minor Planet Electronic Circulars contain information on unusual
         minor planets and routine data on comets.  They are published
   on behalf of Commission 20 of the International Astronomical Union by the
          Minor Planet Center, Smithsonian Astrophysical Observatory,
                          Cambridge, MA 02138, U.S.A.

             Prepared using the Tamkin Foundation Computer Network

                              MPC@CFA.HARVARD.EDU
          URL http://www.cfa.harvard.edu/iau/mpc.html  ISSN 1523-6714

                                   2007 TB14

Observations:
     K07T14B  C2007 10 08.33582 01 54 38.73 +22 25 15.4          19.1 V ET032703
     K07T14B  C2007 10 08.34858 01 54 42.37 +22 22 58.2          19.5 V ET032703
     K07T14B  C2007 10 08.36131 01 54 45.97 +22 20 41.9          19.3 V ET032703
     K07T14B  C2007 10 08.37406 01 54 49.46 +22 18 25.1          19.6 V ET032703
     K07T14B* C2007 10 08.38708 01 54 53.10 +22 16 04.7          18.7 V ET032703
     K07T14B  C2007 10 08.39520 01 54 55.29 +22 14 38.5          19.4 V ET032703
     K07T14B  C2007 10 08.40324 01 54 57.52 +22 13 12.0          19.4 V ET032703
     K07T14B  C2007 10 08.41134 01 54 59.83 +22 11 47.1          19.2 V ET032703
     K07T14B  C2007 10 08.88902 01 57 36.97 +20 51 18.3                 ET032J95
     K07T14B  C2007 10 08.89385 01 57 38.23 +20 50 33.4                 ET032J95
     K07T14B  C2007 10 08.89873 01 57 39.55 +20 49 48.1          19.6 R ET032J95
     K07T14B  C2007 10 08.98299 01 57 59.32 +20 37 03.6                 ET032595
     K07T14B  C2007 10 08.99522 01 58 02.16 +20 35 10.4          19.5 V ET032595

Observer details:
595 Farra d'Isonzo.  Observers L. Bittesini, G. Lombardi, E. Pettarin.
    Measurers G. Lombardi, E. Pettarin.  0.40-m f/4.5 reflector + CCD.
703 Catalina Sky Survey.  Observer R. A. Kowalski.  Measurers E. C. Beshore,
    A. Boattini, G. J. Garradd, A. R. Gibbs, A. D. Grauer, R. E. Hill,
    R. A. Kowalski, S. M. Larson, R. H. McNaught.  0.68-m Schmidt + CCD.
J95 Great Shefford.  Observer P. Birtwhistle.  0.40-m f/6.0 Schmidt-Cassegrain
    + CCD.

Orbital elements:
2007 TB14                                                Earth MOID = 0.0244 AU
Epoch 2007 Oct. 27.0 TT = JDT 2454400.5                 MPC
M  14.20510              (2000.0)            P               Q
n   0.24993758     Peri.  124.36206     +0.81903264     +0.57255325
a   2.4960216      Node   200.78569     -0.55467606     +0.77367698
e   0.6379306      Incl.    5.98316     -0.14669696     +0.27130557
P   3.94           H   24.4           G   0.15           U   8
Residuals in seconds of arc
071008 703  0.8-  0.4+    071008 703  0.7-  0.3-    071008 J95  0.1+  0.0
071008 703  0.2+  0.1+    071008 703  0.9-  0.8-    071008 595  0.4+  0.0
071008 703  0.9+  0.3+    071008 703  0.2-  0.8+    071008 595  0.5-  0.2-
071008 703  0.1+  0.1+    071008 J95  0.1-  0.0
071008 703  0.3+  0.9-    071008 J95  0.4-  0.0

Ephemeris:
2007 TB14                a,e,i = 2.50, 0.64, 6                   q = 0.9037
Date    TT    R. A. (2000) Decl.     Delta      r     Elong.  Phase     V
2007 10 07    01 45.27   +27 08.3    0.0483   1.043   154.3    24.6    19.1
2007 10 12    02 07.94   +14 50.3    0.0838   1.079   163.2    15.5    20.0
2007 10 17    02 15.26   +09 53.3    0.122    1.116   167.7    10.9    20.8
2007 10 22    02 18.34   +07 19.8    0.163    1.156   170.9     7.8    21.3
2007 10 27    02 19.77   +05 51.4    0.205    1.197   172.2     6.5    21.8

Sonia Keys                   (C) Copyright 2007 MPC           M.P.E.C. 2007-T32

Read MPEC 2007-T31 Read MPEC 2007-T33


Our Web policy. Index to the CBAT/MPC/ICQ pages.


Valid HTML 4.01!